Regional Weather Roundup
Issued by NWS Boston, MA

Home | Current Version | Previous Version | Text Only | Print | Product List | Glossary On
Versions: 1 2 3 4 5 6 7 8 9 10 11 12 13 14 15 16 17 18 19 20 21 22 23 24 25 26 27 28 29 30 31 32 33 34 35 36 37 38 39 40 41 42 43 44 45 46 47 48 49 50
000
ASUS41 KBOX 220810
RWRBOX

REGIONAL WEATHER ROUNDUP
NATIONAL WEATHER SERVICE TAUNTON MA
300 AM EST MON DEC 22 2014

NOTE:  "FAIR" INDICATES FEW OR NO CLOUDS BELOW 12,000 FEET WITH NO
SIGNIFICANT WEATHER AND/OR OBSTRUCTIONS TO VISIBILITY.  THE FOLLOWING
OBSERVATION LOCATIONS DO NOT REPORT PRESENT WEATHER...PROVINCETOWN...
SMITHFIELD...BLOCK ISLAND...KEENE...AND OXFORD.

MAZALL-220900-
EASTERN MASSACHUSETTS

CITY           SKY/WX    TMP DP  RH WIND       PRES   REMARKS
BOSTON         CLOUDY    33  26  75 N7        30.36F WCI  27
BEVERLY        CLOUDY    32  24  72 N7        30.36S WCI  26
LAWRENCE       CLOUDY    32  23  69 NE8       30.38F WCI  25
BEDFORD        CLOUDY    31  26  82 NW3       30.35F
BLUE HILL        N/A     29  27  92 N10       30.31F WCI  20
NORWOOD        CLOUDY    33  26  75 NW3       30.35F
MARSHFIELD     CLOUDY    43  37  81 N3        30.36S
PLYMOUTH       CLOUDY    34  34 100 CALM      30.34S
TAUNTON        CLOUDY    35  30  82 CALM      30.34S
NEW BEDFORD    CLOUDY    34  32  92 N6        30.33S WCI  29
$$

MAZALL-220900-
CAPE COD AND THE ISLANDS

CITY           SKY/WX    TMP DP  RH WIND       PRES   REMARKS
FALMOUTH       CLOUDY    39  36  87 N3        30.32F
HYANNIS        CLOUDY    40  37  89 N5        30.31F
CHATHAM        CLOUDY    41  39  93 CALM      30.33S
PROVINCETOWN   MOCLDY    41  36  81 NE5       30.34F
NANTUCKET      CLEAR     38  36  92 N5        30.31S
MARTHAS VNYRD  MOCLDY    36  35  96 N6        30.32S WCI  31
$$

MAZALL-220900-
CENTRAL AND WESTERN MASSACHUSETTS

CITY           SKY/WX    TMP DP  RH WIND       PRES   REMARKS
WORCESTER      CLOUDY    30  25  81 NE7       30.32S WCI  23
FITCHBURG      CLOUDY    33  26  75 CALM      30.36F
ORANGE         CLOUDY    32  29  88 CALM      30.34F
SPRINGFIELD    CLOUDY    32  30  93 NE3       30.34S
WESTFIELD      CLOUDY    33  30  88 N6        30.34F WCI  28
NORTH ADAMS    NOT AVBL
PITTSFIELD     CLOUDY    29  27  92 CALM      30.28F
$$

RIZALL-220900-
RHODE ISLAND

CITY           SKY/WX    TMP DP  RH WIND       PRES   REMARKS
PROVIDENCE     NOT AVBL
NEWPORT        CLOUDY    33  29  85 N7        30.33S WCI  27
BLOCK ISLAND   CLOUDY    37  34  87 NE10G16   30.31S WCI  30
SMITHFIELD     CLOUDY    30  23  74 N8        30.32F WCI  23
WESTERLY       CLOUDY    36  32  85 NE7       30.33F WCI  30
$$

CTZALL-220900-
CONNECTICUT

CITY           SKY/WX    TMP DP  RH WIND       PRES   REMARKS
BRADLEY INTL   CLOUDY    33  30  88 N6        30.33F WCI  28
HARTFORD       CLOUDY    33  30  88 VRB5      30.35S WCI  29
BRIDGEPORT     CLOUDY    36  33  89 NE7       30.33S WCI  30
DANBURY        CLOUDY    33  29  85 E3        30.33R
GROTON         CLOUDY    34  32  92 N8        30.32S WCI  27
NEW HAVEN      CLOUDY    37  32  82 N8        30.33S WCI  31
CHESTER        CLOUDY    34  32  93 N6        30.32S WCI  29
MERIDEN        CLOUDY    34  30  85 N5        30.34S WCI  30
WILLIMANTIC    CLOUDY    34  29  82 N6        30.33F WCI  29
OXFORD         CLOUDY    32  27  80 E8        30.31S WCI  25
$$

MEZ002-015-021-024-NHZ003-005-008-011-012-014-VTZ005-008-220900-
NORTHERN NEW ENGLAND

CITY           SKY/WX    TMP DP  RH WIND       PRES   REMARKS
PORTLAND ME    CLOUDY    31  25  78 N3        30.39S
BANGOR ME      FLURRIES  26  24  92 N5        30.41S WCI  20
CONCORD NH     CLOUDY    30  27  88 N5        30.36F WCI  25
MANCHESTER NH  CLOUDY    32  26  78 N5        30.35F WCI  27
NASHUA NH      CLOUDY    32  27  82 CALM      30.37F
PORTSMOUTH NH  CLOUDY    31  24  74 N6        30.36F WCI  26
JAFFREY NH     CLOUDY    29  27  92 CALM      30.32F
KEENE NH       CLOUDY    30  28  93 CALM      30.35S
BURLINGTON VT  CLOUDY    26  21  81 N3        30.37S
MT. WASHINGTON CLOUDY    14  -2  48 W28         N/A  WCI  -6
$$

NYZ052-076-220900-
EASTERN NEW YORK

CITY           SKY/WX    TMP DP  RH WIND       PRES   REMARKS
ALBANY         FLURRIES  29  23  78 NW5       30.36F WCI  24
NEW YORK CITY  CLOUDY    36  30  79 N3        30.33R
$$

ANZALL-220900-
MARINE OBSERVATIONS

STATION/POSITION TIME  TEMP    WIND        PRES    VSBY  WAVE
                       AIR SEA DIR/SP/G                  HT/PER
                 (UTC) (F)     (DEG/KT/KT) (MB)    (MI)  (FT/S)
BOSTON BUOY      0750   39 46   10/ 16/ 17 1027.6S         3/ 7
BUZZARDS BAY     0700           10/ 14/ 16 1027.4R
NANTUCKET SOUND  0750   42 44   20/ 10/ 12 1026.4F         1/ 7
MASS BAY-STELLWA 0704   39 43  350/ 14/ 19   N/A    1 7/8  3/ 8
ISLE OF SHOALS   0800   34      20/ 15/ 16 1027.5F
S OF BLOCK IS    0708      51                N/A           3/ 4
$$

......................KEY.........................
  SKY/WX - SKY CONDITION/PRESENT WEATHER
  TMP    - TEMPERATURE IN FAHRENHEIT
  DWPT   - DEWPOINT IN FAHRENHEIT
  RH     - RELATIVE HUMIDITY IN PERCENT
  WIND   - DIRECTION AND SPEED IN MPH
  PRES   - MEAN SEA LEVEL PRESSURE IN INCHES OF HG
  WCI    - WIND CHILL INDEX
  VSB    - VISIBILITY IN MILES
  HX     - HEAT INDEX
  TC     - TEMPERATURE IN CELSIUS
  VRB    - VARIABLE WIND DIRECTION
  N/A    - NOT AVAILABLE


USA.gov is the U.S. government's official web portal to all federal, state and local government web resources and services.